| time (UTC) | temp F | wind direction | speed knots | gust knots | rain 1hr in | rain 24hr in | rain mn in | humidity % | barometer mb |
| 20260510220047 | 90 | 302 | 0.0 | 0.9 | 0.00 | 0.00 | 0.00 | 62 | 1015.5 |
| 20260510214544 | 90 | 282 | 0.0 | 1.7 | 0.00 | 0.00 | 0.00 | 61 | 1015.5 |
| 20260510213109 | 89 | 264 | 0.0 | 1.7 | 0.00 | 0.00 | 0.00 | 63 | 1015.5 |
| 20260510211543 | 91 | 282 | 0.0 | 2.6 | 0.00 | 0.00 | 0.00 | 64 | 1015.6 |
| 20260510210042 | 90 | 120 | 0.0 | 1.7 | 0.00 | 0.00 | 0.00 | 64 | 1015.7 |
| 20260510204543 | 90 | 305 | 0.0 | 5.2 | 0.00 | 0.00 | 0.00 | 65 | 1015.6 |
| 20260510203041 | 91 | 219 | 0.9 | 5.2 | 0.00 | 0.00 | 0.00 | 59 | 1015.6 |
| 20260510201542 | 92 | 255 | 0.0 | 1.7 | 0.00 | 0.00 | 0.00 | 57 | 1015.5 |
| 20260510200046 | 93 | 277 | 0.0 | 4.3 | 0.00 | 0.00 | 0.00 | 57 | 1015.4 |
| 20260510194539 | 93 | 242 | 0.0 | 4.3 | 0.00 | 0.00 | 0.00 | 55 | 1015.4 |
| 20260510193039 | 92 | 219 | 0.9 | 4.3 | 0.00 | 0.00 | 0.00 | 54 | 1015.5 |
| 20260510191539 | 93 | 225 | 0.0 | 7.8 | 0.00 | 0.00 | 0.00 | 56 | 1015.4 |
| 20260510190048 | 93 | 233 | 2.6 | 7.8 | 0.00 | 0.00 | 0.00 | 54 | 1015.4 |
| 20260510184538 | 91 | 128 | 0.9 | 7.0 | 0.00 | 0.00 | 0.00 | 58 | 1015.5 |
| 20260510183034 | 91 | 164 | 2.6 | 6.1 | 0.00 | 0.00 | 0.00 | 61 | 1015.8 |
| 20260510181534 | 90 | 295 | 0.9 | 4.3 | 0.00 | 0.00 | 0.00 | 61 | 1015.8 |
| 20260510180035 | 93 | 221 | 0.9 | 5.2 | 0.00 | 0.00 | 0.00 | 59 | 1015.8 |
| 20260510174532 | 92 | 254 | 0.0 | 4.3 | 0.00 | 0.00 | 0.00 | 62 | 1015.9 |
| 20260510173033 | 91 | 281 | 0.9 | 3.5 | 0.00 | 0.00 | 0.00 | 62 | 1016.2 |
| 20260510171544 | 93 | 275 | 0.9 | 5.2 | 0.00 | 0.00 | 0.00 | 57 | 1016.4 |
| 20260510170034 | 92 | 283 | 0.9 | 3.5 | 0.00 | 0.00 | 0.00 | 59 | 1016.5 |
| 20260510164530 | 93 | 231 | 0.9 | 4.3 | 0.00 | 0.00 | 0.00 | 61 | 1016.6 |
| 20260510163033 | 92 | 274 | 0.9 | 6.1 | 0.00 | 0.00 | 0.00 | 61 | 1016.7 |
| 20260510161528 | 93 | 215 | 0.9 | 5.2 | 0.00 | 0.00 | 0.00 | 61 | 1016.8 |
| 20260510160032 | 91 | 219 | 0.9 | 5.2 | 0.00 | 0.00 | 0.00 | 62 | 1016.9 |
| 20260510154525 | 89 | 77 | 0.0 | 5.2 | 0.00 | 0.00 | 0.00 | 67 | 1017.0 |
| 20260510153036 | 91 | 178 | 0.9 | 6.1 | 0.00 | 0.00 | 0.00 | 65 | 1016.9 |
| 20260510151526 | 90 | 79 | 0.9 | 5.2 | 0.00 | 0.00 | 0.00 | 65 | 1016.8 |
| 20260510150019 | 89 | 234 | 0.0 | 2.6 | 0.00 | 0.00 | 0.00 | 71 | 1016.9 |
| 20260510144520 | 90 | 239 | 0.9 | 4.3 | 0.00 | 0.00 | 0.00 | 65 | 1016.9 |
| 20260510143017 | 88 | 264 | 0.0 | 5.2 | 0.00 | 0.00 | 0.00 | 70 | 1016.9 |
| 20260510141515 | 89 | 146 | 0.0 | 0.9 | 0.00 | 0.00 | 0.00 | 69 | 1016.9 |
| 20260510140010 | 88 | 233 | 0.0 | 1.7 | 0.00 | 0.00 | 0.00 | 71 | 1016.7 |
| 20260510134508 | 87 | 198 | 0.0 | 1.7 | 0.00 | 0.00 | 0.00 | 72 | 1016.6 |
| 20260510133005 | 84 | 165 | 0.0 | 0.9 | 0.00 | 0.00 | 0.00 | 77 | 1016.5 |
| 20260510131601 | 82 | 233 | 0.0 | 1.7 | 0.00 | 0.00 | 0.00 | 79 | 1016.5 |
| 20260510130058 | 81 | 244 | 0.0 | 2.6 | 0.00 | 0.00 | 0.00 | 81 | 1016.4 |
| 20260510124600 | 80 | 86 | 0.0 | 0.0 | 0.00 | 0.00 | 0.00 | 83 | 1016.4 |
| 20260510123052 | 77 | 88 | 0.0 | 0.0 | 0.00 | 0.00 | 0.00 | 88 | 1016.2 |
| 20260510121548 | 76 | 76 | 0.0 | 0.0 | 0.00 | 0.00 | 0.00 | 91 | 1016.0 |
| 20260510120046 | 75 | 76 | 0.0 | 0.0 | 0.00 | 0.00 | 0.00 | 94 | 1015.9 |
| 20260510114551 | 73 | 76 | 0.0 | 0.0 | 0.00 | 0.00 | 0.00 | 95 | 1015.6 |
| 20260510113044 | 72 | 76 | 0.0 | 0.0 | 0.00 | 0.00 | 0.00 | 95 | 1015.4 |
| 20260510111540 | 71 | 76 | 0.0 | 0.0 | 0.00 | 0.00 | 0.00 | 94 | 1015.3 |
| 20260510110051 | 71 | 76 | 0.0 | 0.0 | 0.00 | 0.00 | 0.00 | 94 | 1015.0 |
| 20260510104539 | 71 | 76 | 0.0 | 0.0 | 0.00 | 0.00 | 0.00 | 95 | 1014.8 |
| 20260510103043 | 71 | 76 | 0.0 | 0.0 | 0.00 | 0.00 | 0.00 | 94 | 1014.5 |
| 20260510101541 | 71 | 76 | 0.0 | 0.0 | 0.00 | 0.00 | 0.00 | 94 | 1014.2 |
| 20260510100047 | 71 | 76 | 0.0 | 0.0 | 0.00 | 0.00 | 0.00 | 94 | 1013.9 |
| 20260510094541 | 71 | 76 | 0.0 | 0.0 | 0.00 | 0.00 | 0.00 | 94 | 1014.1 |
| 20260510093038 | 71 | 76 | 0.0 | 0.0 | 0.00 | 0.00 | 0.00 | 94 | 1014.0 |
| 20260510091533 | 72 | 76 | 0.0 | 0.0 | 0.00 | 0.00 | 0.00 | 94 | 1013.6 |
| 20260510090032 | 72 | 76 | 0.0 | 0.0 | 0.00 | 0.00 | 0.00 | 94 | 1013.4 |
| 20260510084534 | 72 | 76 | 0.0 | 0.0 | 0.00 | 0.00 | 0.00 | 93 | 1013.4 |
| 20260510083031 | 72 | 76 | 0.0 | 0.0 | 0.00 | 0.00 | 0.00 | 93 | 1013.4 |
| 20260510081538 | 72 | 76 | 0.0 | 0.0 | 0.00 | 0.00 | 0.00 | 93 | 1013.4 |
| 20260510080048 | 72 | 76 | 0.0 | 0.0 | 0.00 | 0.00 | 0.00 | 93 | 1013.5 |
| 20260510074528 | 72 | 76 | 0.0 | 0.0 | 0.00 | 0.00 | 0.00 | 93 | 1013.4 |
| 20260510073038 | 73 | 76 | 0.0 | 0.0 | 0.00 | 0.00 | 0.00 | 93 | 1013.4 |
| 20260510071523 | 73 | 76 | 0.0 | 0.0 | 0.00 | 0.00 | 0.00 | 93 | 1013.7 |
| 20260510070022 | 73 | 76 | 0.0 | 0.0 | 0.00 | 0.00 | 0.00 | 93 | 1013.9 |
| 20260510064521 | 73 | 76 | 0.0 | 0.0 | 0.00 | 0.00 | 0.00 | 93 | 1014.0 |
| 20260510063020 | 73 | 76 | 0.0 | 0.0 | 0.00 | 0.00 | 0.00 | 92 | 1014.1 |
| 20260510061517 | 74 | 76 | 0.0 | 0.0 | 0.00 | 0.00 | 0.00 | 92 | 1014.3 |
| 20260510060031 | 74 | 76 | 0.0 | 0.0 | 0.00 | 0.00 | 0.00 | 92 | 1014.5 |
| 20260510054516 | 75 | 76 | 0.0 | 0.0 | 0.00 | 0.00 | 0.00 | 92 | 1014.8 |
| 20260510053010 | 75 | 76 | 0.0 | 0.0 | 0.00 | 0.00 | 0.00 | 91 | 1014.8 |
| 20260510051508 | 76 | 76 | 0.0 | 0.9 | 0.00 | 0.00 | 0.00 | 90 | 1014.9 |
| 20260510050005 | 76 | 76 | 0.0 | 0.0 | 0.00 | 0.00 | 0.00 | 87 | 1015.3 |
| 20260510044504 | 76 | 76 | 0.0 | 0.9 | 0.00 | 0.00 | 0.00 | 88 | 1015.1 |
| 20260510043003 | 75 | 77 | 0.0 | 0.0 | 0.00 | 0.00 | 0.00 | 88 | 1015.2 |
| 20260510041501 | 76 | 77 | 0.0 | 0.0 | 0.00 | 0.00 | 0.00 | 87 | 1015.2 |
| 20260510040110 | 76 | 77 | 0.0 | 0.0 | 0.00 | 0.00 | 0.00 | 87 | 1015.2 |
| 20260510034557 | 76 | 77 | 0.0 | 0.0 | 0.00 | 0.00 | 0.00 | 86 | 1015.1 |
| 20260510033104 | 76 | 77 | 0.0 | 0.9 | 0.00 | 0.00 | 0.00 | 86 | 1014.9 |
| 20260510031603 | 76 | 77 | 0.0 | 0.0 | 0.00 | 0.00 | 0.00 | 86 | 1015.0 |
| 20260510024557 | 77 | 78 | 0.0 | 0.0 | 0.00 | 0.00 | 0.00 | 85 | 1014.8 |
| 20260510023055 | 77 | 78 | 0.0 | 0.9 | 0.00 | 0.00 | 0.00 | 85 | 1014.7 |
| 20260510021645 | 77 | 74 | 0.0 | 0.9 | 0.00 | 0.00 | 0.00 | 85 | 1014.7 |
| 20260510020059 | 77 | 59 | 0.0 | 0.0 | 0.00 | 0.00 | 0.00 | 86 | 1014.7 |
| 20260510014559 | 77 | 59 | 0.0 | 0.9 | 0.00 | 0.00 | 0.00 | 84 | 1014.4 |
| 20260510013102 | 77 | 59 | 0.0 | 0.0 | 0.00 | 0.00 | 0.00 | 83 | 1014.2 |
| 20260510011554 | 78 | 59 | 0.0 | 1.7 | 0.00 | 0.00 | 0.00 | 80 | 1014.0 |
| 20260510010058 | 78 | 335 | 0.0 | 0.9 | 0.00 | 0.00 | 0.00 | 81 | 1013.8 |
| 20260510004552 | 79 | 323 | 0.0 | 0.0 | 0.00 | 0.00 | 0.00 | 80 | 1013.9 |
| 20260510003052 | 80 | 324 | 0.0 | 0.9 | 0.00 | 0.00 | 0.00 | 78 | 1013.6 |
| 20260510001551 | 80 | 42 | 0.0 | 1.7 | 0.00 | 0.00 | 0.00 | 75 | 1013.2 |
| 20260510000051 | 81 | 127 | 0.0 | 0.9 | 0.00 | 0.00 | 0.00 | 73 | 1013.1 |
| 20260509234550 | 82 | 240 | 0.0 | 0.9 | 0.00 | 0.00 | 0.00 | 70 | 1013.0 |
| 20260509233050 | 83 | 243 | 0.0 | 1.7 | 0.00 | 0.00 | 0.00 | 65 | 1012.8 |
| 20260509231551 | 84 | 228 | 0.0 | 3.5 | 0.00 | 0.00 | 0.00 | 62 | 1012.6 |
| 20260509230051 | 85 | 134 | 0.0 | 2.6 | 0.00 | 0.00 | 0.00 | 58 | 1012.6 |
| 20260509224548 | 86 | 212 | 0.0 | 2.6 | 0.00 | 0.00 | 0.00 | 55 | 1012.4 |
| 20260509223051 | 88 | 105 | 0.0 | 1.7 | 0.00 | 0.00 | 0.00 | 51 | 1012.3 |
| 20260509221548 | 90 | 281 | 0.0 | 1.7 | 0.00 | 0.00 | 0.00 | 52 | 1012.2 |